Torna al catalogo

STARLINK-36056

AttivoComunicazioniVLEO
NORAD 67206·PAYLOAD·🇺🇸 United States

Lanciato Dec 17, 2025 da Vandenberg Space Force Base

Loading…

Prossimi Passaggi (prossime 24 ore)

TLE

AggiornatoSource: CelesTrak SupGP

Epoca: Sep 15, 2026, 04:18 UTC

1 67206C 25304Q   26258.17965278 -.00005708  00000+0 -47827-3 0  2583
2 67206  70.0011  56.8344 0003485 270.6060 123.3230 14.98336359    19

Traccia STARLINK-36056 in tempo reale con AllMySat

Download on the App Store